Regional Weather Roundup
Issued by NWS Kansas City/Pleasant Hill, MO

Home | Current Version | Previous Version | Graphics & Text | Print | Product List | Glossary Off
Versions: 1 2 3 4 5 6 7 8 9 10 11 12 13 14 15 16 17 18 19 20 21 22 23 24 25 26 27 28 29 30 31 32 33 34 35 36 37 38 39 40 41 42 43 44 45 46 47 48 49 50

000
ASUS43 KEAX 020111
RWREAX

WEATHER ROUNDUP FOR EASTERN KANSAS AND NORTHWEST MISSOURI
NATIONAL WEATHER SERVICE KANSAS CITY/PLEASANT HILL MO
800 PM CDT WED OCT 01 2014

KSZ040-057-103>105-MOZ028-029-037-043-020200-
...KANSAS CITY METROPOLITAN AREA...

CITY           SKY/WX    TMP DP  RH WIND       PRES   REMARKS
K.C. INTL      MOCLDY    69  65  86 E7        29.75S
K.C. DOWNTOWN  MOCLDY    68  65  90 E8        29.74R
LEES SUMMIT    CLOUDY    68  66  93 E9        29.76S THUNDER
OLATHE - IXD   MOCLDY    69  67  93 E9        29.73S
OLATHE - OJC   MOCLDY    69  67  93 E10       29.73S
LAWRENCE       MOCLDY    71  64  78 E9        29.71S

$$

MOZ001>008-011>017-020>025-030>033-038>040-044>046-053-054-020200-
...NORTHERN AND CENTRAL MISSOURI...

CITY           SKY/WX    TMP DP  RH WIND       PRES   REMARKS
ST. JOSEPH     PTCLDY    73  67  81 SE10      29.74R
MOSBY          PTCLDY    64  64 100 CALM      29.77R
WHITEMAN AFB   CLOUDY    66  64  93 N7        29.76R
CLINTON        CLOUDY    66  66 100 SE3       29.75F
SEDALIA        CLOUDY    65  63  93 E8        29.76F
WARSAW         NOT AVBL
MARSHALL       RAIN      68  66  94 SW3       29.81R
CHILLICOTHE      N/A     68  66  93 E7        29.79R
MOBERLY        TSTM      66  63  88 E8        29.84R
KIRKSVILLE     CLOUDY    65  65 100 S5        29.83R FOG

$$

MOZ041-047>049-056>058-063>065-088>090-097-020200-
...EASTERN AND SOUTHERN MISSOURI...

CITY           SKY/WX    TMP DP  RH WIND       PRES   REMARKS
ST. LOUIS INTL CLOUDY    84  63  49 S13G21    29.82R
SPIRIT OF STL  CLOUDY    80  63  55 SE5       29.80R
COLUMBIA       TSTM      68  66  93 NW13      29.86R FOG
HANNIBAL       CLOUDY    66  64  94 E8        29.82R
ROLLA          CLOUDY    79  64  60 S10G22    29.81R
OSAGE BEACH    CLOUDY    72  59  64 N10G31    29.82R
SPRINGFIELD    MOCLDY    77  65  66 S7        29.80R
BRANSON        PTCLDY    77  66  69 S7        29.82S
NEVADA         CLEAR     73  66  78 SE5       29.75S
JOPLIN         CLEAR     78  67  68 S17       29.74S
WEST PLAINS    MOCLDY    76  67  73 SE7       29.86R

$$

IAZ060-094-KSZ022-034>040-054-083-096-NEZ052-066-093-020200-
...KANSAS...SOUTHEAST NEBRASKA AND IOWA...

CITY           SKY/WX    TMP DP  RH WIND       PRES   REMARKS
TOPEKA         PTCLDY    76  69  79 E6        29.69S
MANHATTAN      MOCLDY    72  63  73 VRB7      29.73R
EMPORIA        TSTM      71  67  87 SE12      29.70R
CHANUTE        PTCLDY    75  67  76 SE14      29.69S
WICHITA        PTCLDY    79  61  53 S5        29.65R
OMAHA          MOCLDY    69  64  84 CALM      29.76R
LINCOLN        PTCLDY    67  61  81 NE7       29.77R
FALLS CITY     MOCLDY    73  65  75 E7        29.73R
LAMONI         CLEAR     66  64  93 SE6       29.79R FOG
DES MOINES     PTCLDY    67  63  87 SE5       29.78R

$$



USA.gov is the U.S. government's official web portal to all federal, state and local government web resources and services.